Location: Arpaise
(41.0333°N, 14.7333°E)
Time: 08:08:14
(UTC+00:00)

DELTA 2 R/B (1) - Pass Details

Date: 05 July 2020
Orbit: 791 x 802 km, 39.6° (Epoch: 05 August)

Event Time Altitude Azimuth Distance (km) Brightness Sun altitude
Rises 20:36:40 0° 235° (SW) 3,279 6.8 -17.5°
Reaches altitude 10° 20:39:13 10° 229° (SW) 2,353 6.0 -17.8°
Maximum altitude 20:44:29 45° 158° (SSE) 1,070 3.8 -18.3°
Enters shadow 20:49:03 14° 89° (E) 2,112 5.5 -18.8°
